This demonstration page uses our WeatherBlox Daily Observations layout. Learn more.

Hourly Observations for December 8, 2016

Temp ( °F °C ) Dew Point ( °F °C ) Humidity (%) Winds ( mph kmh ) Pressure ( in mb ) Visibility ( mi km ) Precip ( " mm )
12:54 am 00:54 Clear 15 -9.4 3 -16.1 59 59 NW 18 30 30.58 1035 10 16.0934 0 0
1:54 am 01:54 Clear 14 -10 3 -16.1 61 61 NW 14 22 30.59 1036 10 16.0934 0 0
2:54 am 02:54 Clear 14 -10 3 -16.1 61 61 NW 13 20 30.6 1036 10 16.0934 0 0
3:54 am 03:54 Clear 13 -10.6 2 -16.7 61 61 NW 14 22 30.61 1037 10 16.0934 0 0
4:54 am 04:54 Clear 12 -11.1 2 -16.7 64 64 NW 15 24 30.62 1037 10 16.0934 0 0
5:54 am 05:54 Clear 12 -11.1 2 -16.7 64 64 NW 16 26 30.63 1037 10 16.0934 0 0
6:54 am 06:54 Clear 11 -11.7 2 -16.7 67 67 NW 12 19 30.66 1038 10 16.0934 0 0
7:54 am 07:54 Sunny 11 -11.7 1 -17.2 64 64 NW 13 20 30.68 1039 10 16.0934 0 0
8:54 am 08:54 Sunny 13 -10.6 2 -16.7 61 61 NW 21 33 30.71 1040 10 16.0934 0 0
9:54 am 09:54 Sunny 15 -9.4 3 -16.1 59 59 NW 15 24 30.73 1041 10 16.0934 0 0
10:54 am 10:54 Sunny 18 -7.8 5 -15 57 57 NW 15 24 30.72 1040 10 16.0934 0 0
11:54 am 11:54 Sunny 21 -6.1 6 -14.4 52 52 NNW 16 26 30.71 1040 10 16.0934 0 0
12:54 pm 12:54 Sunny 23 -5 7 -13.9 50 50 NW 15 24 30.69 1039 10 16.0934 0 0
1:54 pm 13:54 Sunny 25 -3.9 8 -13.3 48 48 NNW 16 26 30.68 1039 10 16.0934 0 0
2:54 pm 14:54 Sunny 27 -2.8 8 -13.3 45 45 NNW 14 22 30.68 1039 10 16.0934 0 0
3:54 pm 15:54 Sunny 26 -3.3 8 -13.3 46 46 NNW 14 22 30.7 1040 10 16.0934 0 0
4:54 pm 16:54 Sunny 24 -4.4 7 -13.9 48 48 NNW 9 15 30.71 1040 10 16.0934 0 0
5:54 pm 17:54 Clear 21 -6.1 7 -13.9 54 54 NW 6 9 30.71 1040 10 16.0934 0 0
6:54 pm 18:54 Clear 13 -10.6 6 -14.4 74 74 Calm 30.72 1040 10 16.0934 0 0
7:54 pm 19:54 Clear 18 -7.8 6 -14.4 59 59 NW 5 7 30.73 1041 10 16.0934 0 0
8:54 pm 20:54 Clear 12 -11.1 5 -15 73 73 NNW 3 6 30.73 1041 10 16.0934 0 0
9:54 pm 21:54 Clear 8 -13.3 3 -16.1 80 80 N 5 7 30.72 1040 10 16.0934 0 0
10:54 pm 22:54 Clear 11 -11.7 5 -15 77 77 Calm 30.72 1040 10 16.0934 0 0
11:54 pm 23:54 Clear 8 -13.3 3 -16.1 80 80 Calm 30.73 1041 10 16.0934 0 0

Powered by AerisWeather